| time (UTC) | temp F | wind direction | speed MPH | gust MPH | rain 1hr in | rain 24hr in | rain mn in | humidity % | barometer mb |
| 20260502163153 | 51 | 286 | 2.0 | 7.0 | 0.00 | 0.01 | 0.00 | 24 | 1025.4 |
| 20260502162152 | 51 | 9 | 3.0 | 10.0 | 0.00 | 0.02 | 0.00 | 23 | 1025.2 |
| 20260502161153 | 52 | 267 | 1.0 | 6.0 | 0.00 | 0.02 | 0.00 | 24 | 1025.2 |
| 20260502160634 | 51 | 358 | 2.0 | 5.0 | 0.00 | 0.02 | 0.00 | 26 | 1025.4 |
| 20260502152151 | 48 | 326 | 3.0 | 9.0 | 0.00 | 0.03 | 0.00 | 28 | 1025.6 |
| 20260502151150 | 47 | 300 | 3.0 | 9.0 | 0.00 | 0.03 | 0.00 | 29 | 1025.8 |
| 20260502150151 | 47 | 359 | 2.0 | 7.0 | 0.00 | 0.03 | 0.00 | 30 | 1025.9 |
| 20260502130124 | 36 | 326 | 0.0 | 3.0 | 0.00 | 0.03 | 0.00 | 55 | 1025.8 |
| 20260502123125 | 31 | 249 | 0.0 | 1.0 | 0.00 | 0.03 | 0.00 | 65 | 1025.5 |
| 20260502122121 | 31 | 249 | 0.0 | 1.0 | 0.00 | 0.03 | 0.00 | 64 | 1025.5 |
| 20260502121122 | 31 | 240 | 0.0 | 0.0 | 0.00 | 0.03 | 0.00 | 65 | 1025.4 |
| 20260502120122 | 31 | 240 | 0.0 | 1.0 | 0.00 | 0.03 | 0.00 | 64 | 1025.4 |
| 20260502115122 | 31 | 267 | 0.0 | 2.0 | 0.00 | 0.03 | 0.00 | 66 | 1025.2 |
| 20260502114122 | 30 | 253 | 0.0 | 1.0 | 0.00 | 0.03 | 0.00 | 68 | 1025.4 |
| 20260502113124 | 31 | 255 | 0.0 | 2.0 | 0.00 | 0.03 | 0.00 | 68 | 1025.2 |
| 20260502112121 | 31 | 260 | 0.0 | 1.0 | 0.00 | 0.03 | 0.00 | 69 | 1025.2 |
| 20260502111120 | 30 | 307 | 0.0 | 1.0 | 0.00 | 0.03 | 0.00 | 70 | 1025.4 |
| 20260502110551 | 30 | 252 | 0.0 | 1.0 | 0.00 | 0.03 | 0.00 | 71 | 1025.2 |
| 20260502105120 | 30 | 270 | 0.0 | 2.0 | 0.00 | 0.03 | 0.00 | 72 | 1025.4 |
| 20260502104120 | 30 | 269 | 0.0 | 4.0 | 0.00 | 0.03 | 0.00 | 73 | 1025.4 |
| 20260502103120 | 29 | 297 | 0.0 | 4.0 | 0.00 | 0.03 | 0.00 | 75 | 1025.2 |
| 20260502102559 | 29 | 259 | 0.0 | 1.0 | 0.00 | 0.03 | 0.00 | 75 | 1025.2 |
| 20260502101104 | 29 | 209 | 0.0 | 0.0 | 0.00 | 0.03 | 0.00 | 75 | 1025.4 |
| 20260502091042 | 29 | 315 | 0.0 | 1.0 | 0.00 | 0.03 | 0.00 | 76 | 1025.1 |
| 20260502090516 | 29 | 315 | 0.0 | 0.0 | 0.00 | 0.03 | 0.00 | 74 | 1025.1 |
| 20260502071027 | 32 | 316 | 1.0 | 4.0 | 0.00 | 0.03 | 0.00 | 71 | 1025.6 |
| 20260502070500 | 32 | 318 | 2.0 | 7.0 | 0.00 | 0.03 | 0.00 | 71 | 1025.6 |
| 20260502065027 | 32 | 316 | 1.0 | 4.0 | 0.00 | 0.03 | 0.00 | 71 | 1025.6 |
| 20260502064010 | 32 | 311 | 1.0 | 3.0 | 0.00 | 0.03 | 0.00 | 72 | 1025.8 |
| 20260502063006 | 32 | 307 | 0.0 | 2.0 | 0.00 | 0.03 | 0.00 | 73 | 1025.8 |
| 20260502062920 | 33 | 318 | 1.0 | 4.0 | 0.00 | 0.03 | 0.00 | 71 | 1025.8 |
| 20260502061004 | 33 | 317 | 0.0 | 4.0 | 0.00 | 0.03 | 0.00 | 70 | 1025.8 |
| 20260502060000 | 33 | 239 | 0.0 | 1.0 | 0.00 | 0.03 | 0.03 | 70 | 1025.8 |
| 20260502054957 | 33 | 323 | 0.0 | 5.0 | 0.00 | 0.03 | 0.03 | 71 | 1025.8 |
| 20260502054435 | 33 | 313 | 0.0 | 4.0 | 0.00 | 0.03 | 0.03 | 70 | 1025.6 |
| 20260502052953 | 33 | 277 | 0.0 | 1.0 | 0.00 | 0.03 | 0.03 | 70 | 1025.6 |
| 20260502052439 | 34 | 262 | 0.0 | 4.0 | 0.00 | 0.03 | 0.03 | 70 | 1025.6 |
| 20260502050948 | 35 | 326 | 1.0 | 3.0 | 0.00 | 0.03 | 0.03 | 69 | 1025.6 |
| 20260502045949 | 35 | 316 | 2.0 | 5.0 | 0.00 | 0.03 | 0.03 | 68 | 1025.6 |
| 20260502044948 | 36 | 315 | 4.0 | 9.0 | 0.00 | 0.03 | 0.03 | 66 | 1025.5 |
| 20260502044424 | 36 | 307 | 2.0 | 8.0 | 0.00 | 0.03 | 0.03 | 65 | 1025.5 |
| 20260502042942 | 36 | 311 | 3.0 | 10.0 | 0.00 | 0.03 | 0.03 | 65 | 1025.4 |
| 20260502041943 | 35 | 305 | 1.0 | 5.0 | 0.00 | 0.03 | 0.03 | 66 | 1025.2 |
| 20260502040943 | 35 | 298 | 0.0 | 4.0 | 0.00 | 0.03 | 0.03 | 67 | 1025.2 |
| 20260502040418 | 36 | 266 | 0.0 | 1.0 | 0.00 | 0.03 | 0.03 | 66 | 1025.0 |
| 20260502034942 | 36 | 243 | 0.0 | 0.0 | 0.00 | 0.03 | 0.03 | 65 | 1025.0 |
| 20260502033942 | 37 | 243 | 0.0 | 1.0 | 0.00 | 0.03 | 0.03 | 65 | 1024.9 |
| 20260502032944 | 37 | 262 | 0.0 | 1.0 | 0.00 | 0.03 | 0.03 | 63 | 1024.6 |
| 20260502032414 | 37 | 262 | 0.0 | 1.0 | 0.00 | 0.03 | 0.03 | 63 | 1024.5 |
| 20260502030940 | 37 | 304 | 0.0 | 1.0 | 0.00 | 0.03 | 0.03 | 62 | 1024.4 |
| 20260502025941 | 37 | 262 | 0.0 | 3.0 | 0.00 | 0.03 | 0.03 | 63 | 1024.2 |
| 20260502025418 | 38 | 316 | 0.0 | 2.0 | 0.00 | 0.03 | 0.03 | 64 | 1024.1 |
| 20260502023938 | 39 | 281 | 0.0 | 1.0 | 0.00 | 0.03 | 0.03 | 60 | 1024.0 |
| 20260502022939 | 39 | 262 | 0.0 | 2.0 | 0.00 | 0.03 | 0.03 | 58 | 1023.9 |
| 20260502021938 | 39 | 263 | 1.0 | 4.0 | 0.00 | 0.03 | 0.03 | 58 | 1023.9 |
| 20260502020936 | 39 | 308 | 0.0 | 2.0 | 0.00 | 0.03 | 0.03 | 58 | 1023.7 |
| 20260502015936 | 40 | 270 | 0.0 | 2.0 | 0.00 | 0.03 | 0.03 | 53 | 1023.6 |
| 20260502014936 | 41 | 308 | 0.0 | 3.0 | 0.00 | 0.03 | 0.03 | 54 | 1023.6 |
| 20260502013938 | 43 | 259 | 0.0 | 1.0 | 0.00 | 0.03 | 0.03 | 50 | 1023.5 |
| 20260502012936 | 46 | 257 | 0.0 | 1.0 | 0.00 | 0.03 | 0.03 | 38 | 1023.2 |
| 20260502011935 | 46 | 257 | 0.0 | 1.0 | 0.00 | 0.03 | 0.03 | 35 | 1023.1 |
| 20260502010936 | 46 | 316 | 1.0 | 7.0 | 0.00 | 0.03 | 0.03 | 34 | 1023.1 |
| 20260502010844 | 47 | 333 | 1.0 | 6.0 | 0.00 | 0.03 | 0.03 | 35 | 1023.0 |
| 20260502004912 | 46 | 318 | 1.0 | 7.0 | 0.00 | 0.03 | 0.03 | 35 | 1023.1 |
| 20260502003912 | 46 | 311 | 3.0 | 7.0 | 0.00 | 0.03 | 0.03 | 35 | 1023.0 |
| 20260502002911 | 47 | 315 | 1.0 | 5.0 | 0.00 | 0.03 | 0.03 | 35 | 1022.9 |
| 20260502001910 | 47 | 110 | 1.0 | 6.0 | 0.00 | 0.03 | 0.03 | 33 | 1022.9 |
| 20260502000910 | 47 | 4 | 1.0 | 4.0 | 0.00 | 0.03 | 0.03 | 32 | 1022.9 |
| 20260501235907 | 47 | 22 | 1.0 | 7.0 | 0.00 | 0.03 | 0.03 | 33 | 1022.9 |
| 20260501234910 | 47 | 314 | 3.0 | 7.0 | 0.00 | 0.03 | 0.03 | 34 | 1022.7 |
| 20260501233904 | 47 | 339 | 1.0 | 6.0 | 0.00 | 0.03 | 0.03 | 33 | 1022.7 |
| 20260501232905 | 47 | 60 | 1.0 | 5.0 | 0.00 | 0.03 | 0.03 | 33 | 1022.6 |
| 20260501231904 | 48 | 51 | 1.0 | 4.0 | 0.00 | 0.03 | 0.03 | 35 | 1022.5 |
| 20260501230905 | 48 | 25 | 2.0 | 5.0 | 0.00 | 0.03 | 0.03 | 34 | 1022.4 |
| 20260501225905 | 48 | 323 | 1.0 | 5.0 | 0.00 | 0.03 | 0.03 | 33 | 1022.2 |
| 20260501224901 | 49 | 325 | 1.0 | 5.0 | 0.00 | 0.04 | 0.03 | 34 | 1022.2 |
| 20260501223900 | 48 | 131 | 2.0 | 8.0 | 0.00 | 0.04 | 0.03 | 34 | 1022.2 |
| 20260501222900 | 48 | 39 | 2.0 | 4.0 | 0.00 | 0.05 | 0.03 | 33 | 1022.2 |
| 20260501222345 | 48 | 333 | 3.0 | 12.0 | 0.00 | 0.06 | 0.03 | 33 | 1022.2 |
| 20260501220901 | 49 | 19 | 2.0 | 10.0 | 0.00 | 0.06 | 0.03 | 33 | 1022.2 |
| 20260501215858 | 48 | 311 | 3.0 | 10.0 | 0.00 | 0.07 | 0.03 | 34 | 1022.2 |
| 20260501214858 | 49 | 321 | 2.0 | 9.0 | 0.00 | 0.07 | 0.03 | 35 | 1022.2 |
| 20260501214821 | 49 | 44 | 2.0 | 8.0 | 0.00 | 0.07 | 0.03 | 35 | 1022.4 |
| 20260501212856 | 49 | 129 | 2.0 | 8.0 | 0.00 | 0.07 | 0.03 | 37 | 1022.5 |
| 20260501211856 | 48 | 68 | 1.0 | 6.0 | 0.00 | 0.07 | 0.03 | 39 | 1022.6 |
| 20260501210856 | 47 | 191 | 1.0 | 7.0 | 0.00 | 0.07 | 0.03 | 38 | 1022.7 |
| 20260501205857 | 48 | 338 | 1.0 | 5.0 | 0.00 | 0.07 | 0.03 | 39 | 1022.7 |
| 20260501204857 | 47 | 70 | 3.0 | 10.0 | 0.00 | 0.07 | 0.03 | 40 | 1022.7 |
| 20260501203856 | 47 | 57 | 2.0 | 7.0 | 0.00 | 0.07 | 0.03 | 40 | 1022.7 |
| 20260501203335 | 48 | 41 | 1.0 | 5.0 | 0.00 | 0.07 | 0.03 | 38 | 1022.7 |
| 20260501201856 | 48 | 108 | 2.0 | 8.0 | 0.00 | 0.07 | 0.03 | 37 | 1022.6 |
| 20260501200856 | 47 | 291 | 1.0 | 5.0 | 0.00 | 0.07 | 0.03 | 40 | 1022.7 |
| 20260501195856 | 46 | 32 | 2.0 | 7.0 | 0.00 | 0.07 | 0.03 | 39 | 1022.7 |
| 20260501194851 | 48 | 285 | 3.0 | 10.0 | 0.00 | 0.07 | 0.03 | 39 | 1022.7 |
| 20260501193852 | 50 | 208 | 1.0 | 5.0 | 0.00 | 0.07 | 0.03 | 37 | 1022.6 |
| 20260501192852 | 47 | 197 | 1.0 | 5.0 | 0.00 | 0.07 | 0.03 | 37 | 1022.6 |
| 20260501191851 | 47 | 143 | 2.0 | 10.0 | 0.00 | 0.07 | 0.03 | 39 | 1022.9 |
| 20260501190850 | 48 | 333 | 1.0 | 6.0 | 0.00 | 0.07 | 0.03 | 39 | 1022.9 |
| 20260501185850 | 47 | 71 | 2.0 | 5.0 | 0.00 | 0.08 | 0.03 | 40 | 1022.9 |
| 20260501184850 | 46 | 308 | 1.0 | 4.0 | 0.00 | 0.08 | 0.03 | 51 | 1023.0 |
| 20260501183848 | 44 | 313 | 3.0 | 10.0 | 0.00 | 0.09 | 0.03 | 46 | 1023.0 |
| 20260501182846 | 46 | 347 | 3.0 | 12.0 | 0.00 | 0.09 | 0.03 | 45 | 1023.1 |
| 20260501181846 | 46 | 347 | 2.0 | 6.0 | 0.00 | 0.10 | 0.03 | 45 | 1023.2 |
| 20260501180844 | 45 | 316 | 1.0 | 7.0 | 0.01 | 0.10 | 0.03 | 45 | 1023.1 |
| 20260501175842 | 45 | 100 | 3.0 | 8.0 | 0.01 | 0.11 | 0.03 | 45 | 1023.2 |
| 20260501174843 | 44 | 41 | 2.0 | 8.0 | 0.01 | 0.11 | 0.03 | 49 | 1023.4 |
| 20260501173844 | 44 | 246 | 1.0 | 5.0 | 0.01 | 0.12 | 0.03 | 48 | 1023.4 |
| 20260501172838 | 44 | 139 | 2.0 | 7.0 | 0.01 | 0.12 | 0.03 | 48 | 1023.5 |
| 20260501172802 | 44 | 329 | 2.0 | 10.0 | 0.02 | 0.13 | 0.03 | 48 | 1023.5 |
| 20260501170838 | 44 | 242 | 1.0 | 5.0 | 0.01 | 0.12 | 0.02 | 46 | 1023.5 |
| 20260501165834 | 44 | 49 | 2.0 | 7.0 | 0.01 | 0.13 | 0.02 | 48 | 1023.5 |
| 20260501164835 | 43 | 325 | 2.0 | 6.0 | 0.01 | 0.13 | 0.02 | 49 | 1023.5 |
| 20260501163833 | 42 | 319 | 1.0 | 5.0 | 0.01 | 0.14 | 0.02 | 50 | 1023.5 |